Hourly Data Report for July 01, 2017

TORONTO CITY
ONTARIO

43°40'00.000" N
79°24'00.000" W
112.50 m
6158355
71508
XTO

Download Data

Hourly Data (July 2017)
Hourly Data Report for July 1, 2017
TIME
LST
Temp Definition
°C
Dew Point Definition
°C
Rel Hum Definition
%
Precip. Amount Definition
mm

Wind Dir Definition
10's deg

Wind Spd Definition
km/h
Visibility Definition
km
Stn Press Definition
kPa
Hmdx Definition


Wind Chill Definition


Weather Definition


00:00 20.3 18.0 87 0.3 LegendMM LegendMM   99.74 26   LegendNANA
01:00 19.9 18.1 90 0.4 LegendMM LegendMM   99.67     LegendNANA
02:00 19.8 18.2 91 0.0 LegendMM LegendMM   99.61     LegendNANA
03:00 19.3 17.5 89 0.0 LegendMM LegendMM   99.59     LegendNANA
04:00 19.3 17.5 90 0.0 LegendMM LegendMM   99.55     LegendNANA
05:00 19.1 17.4 89 0.0 LegendMM LegendMM   99.59     LegendNANA
06:00 19.3 17.5 89 0.0 LegendMM LegendMM   99.59     LegendNANA
07:00 20.0 17.8 87 0.0 LegendMM LegendMM   99.59 26   LegendNANA
08:00 20.8 17.9 84 0.0 LegendMM LegendMM   99.61 27   LegendNANA
09:00 20.6 17.5 83 0.0 LegendMM LegendMM   99.59 26   LegendNANA
10:00 22.2 18.4 79 0.0 LegendMM LegendMM   99.58 29   LegendNANA
11:00 23.8 18.8 74 0.0 LegendMM LegendMM   99.56 30   LegendNANA
12:00 23.6 18.3 72 0.0 LegendMM LegendMM   99.56 30   LegendNANA
13:00 25.1 18.7 68 0.0 LegendMM LegendMM   99.51 32   LegendNANA
14:00 24.5 17.7 66 0.0 LegendMM LegendMM   99.53 30   LegendNANA
15:00 20.7 17.3 81 2.3 LegendMM LegendMM   99.57 26   LegendNANA
16:00 18.3 16.0 87 0.9 LegendMM LegendMM   99.58     LegendNANA
17:00 19.7 17.7 88 0.0 LegendMM LegendMM   99.58     LegendNANA
18:00 20.2 16.9 82 0.0 LegendMM LegendMM   99.59 25   LegendNANA
19:00 20.2 16.2 78 0.0 LegendMM LegendMM   99.64 25   LegendNANA
20:00 19.3 16.6 84 0.0 LegendMM LegendMM   99.69     LegendNANA
21:00 19.7 17.3 86 0.0 LegendMM LegendMM   99.80     LegendNANA
22:00 20.4 15.4 73 0.0 LegendMM LegendMM   99.91 25   LegendNANA
23:00 19.0 14.2 74 0.0 LegendMM LegendMM   99.94     LegendNANA

Notes on Data Quality.

Legend

  • E = Estimated
  • M = Missing
  • NA = Not Available*
  • [empty] = Indicates an unobserved value
Date modified: